Theta_e
337 339 345 345 344 346 345 347 348 348 344 342 342 343 342 340 341 340 342 344 345 348 348 346 345 344 343 341 339 339 339 339 339 339 339 339 338 339 340 341 340 337 341
339 340 345 346 347 348 347 347 349 347 343 341 342 342 341 341 340 339 340 342 344 347 346 343 342 343 340 338 338 336 335 336 339 340 338 338 339 337 337 339 337 334 337
342 343 342 347 349 348 347 348 348 347 342 340 339 338 338 337 337 337 339 342 345 344 344 342 340 338 337 335 335 334 334 335 337 338 336 331 333 336 337 336 337 336 336
343 344 343 345 350 348 348 349 349 347 342 341 339 337 336 335 335 337 339 342 344 343 342 340 338 336 335 334 334 334 334 335 337 336 332 331 330 336 336 335 335 335 335
342 343 345 347 350 349 349 349 349 347 344 342 341 339 335 334 334 336 337 339 341 341 339 337 336 334 333 334 334 333 334 336 335 331 329 328 328 333 335 334 334 334 336
341 342 344 348 349 349 349 348 347 347 343 343 341 339 336 333 333 334 335 337 337 336 335 334 333 332 333 333 333 333 333 336 333 330 330 332 332 336 337 336 335 336 336
342 344 344 346 347 349 350 348 348 347 345 343 341 339 336 333 331 333 333 335 334 332 331 330 330 331 331 331 331 331 333 335 333 334 334 335 335 338 339 338 336 334 334
340 343 343 340 342 346 348 347 346 345 345 344 341 339 336 333 331 331 331 331 330 328 327 328 328 329 330 330 329 330 331 331 328 327 328 330 333 334 335 335 332 331 331
342 341 343 344 342 338 341 342 343 344 344 343 342 341 339 336 334 333 332 329 328 325 325 325 327 328 329 328 327 328 327 326 322 324 323 325 329 331 332 332 330 329 328
340 340 340 342 342 342 343 336 338 340 341 341 340 336 334 334 333 331 329 330 327 325 323 323 325 327 326 325 325 326 327 327 328 327 326 327 331 331 330 332 328 326 324
338 339 341 340 341 341 341 338 334 335 336 335 334 330 328 331 329 329 326 328 326 324 322 323 324 323 322 322 323 323 325 325 325 327 328 329 331 333 332 329 325 324 322
335 338 340 341 340 340 340 342 341 342 342 341 338 335 335 333 333 327 323 324 325 323 322 321 321 321 321 320 320 322 323 322 322 323 326 330 331 331 329 326 324 322 320
334 336 339 340 341 340 340 341 342 342 342 341 340 338 337 335 331 328 323 320 319 317 316 315 317 318 319 319 318 318 320 320 318 319 319 326 328 328 326 323 322 320 319
334 335 338 338 340 340 342 340 340 340 342 341 341 340 339 336 332 331 325 321 320 319 317 319 318 317 316 315 315 315 316 318 318 315 314 319 325 323 325 323 320 318 317
331 334 332 334 339 339 338 336 339 341 341 340 342 341 340 336 335 330 325 319 317 317 317 317 316 314 312 311 311 311 312 314 314 313 313 314 320 322 322 320 318 317 316
331 333 334 330 335 336 335 336 334 337 339 342 342 342 340 337 333 329 323 319 315 315 316 316 315 313 309 307 306 306 307 309 310 310 312 311 315 316 316 316 316 316 315
332 332 333 332 330 333 333 335 336 337 335 336 339 340 340 338 334 330 324 321 318 317 312 312 310 308 305 303 301 300 301 302 303 304 308 309 307 311 312 313 313 313 313
330 331 332 331 332 332 332 333 333 335 336 336 336 338 340 339 334 327 324 319 316 313 312 305 302 302 300 301 299 298 297 297 298 298 302 303 302 303 306 308 309 310 310
327 329 330 329 326 328 329 330 331 333 333 334 334 335 337 338 333 328 324 319 315 315 308 303 300 300 298 298 297 297 296 296 295 295 296 298 299 299 300 302 303 305 306
324 326 327 326 324 325 325 325 326 327 331 332 332 332 334 335 333 328 324 317 314 312 307 302 300 300 298 296 294 294 294 295 295 294 293 293 293 294 295 296 298 299 302
319 319 321 321 320 321 319 318 318 318 322 326 329 331 332 332 331 326 321 316 314 311 307 302 299 297 296 295 292 292 292 292 292 293 293 292 291 291 292 292 293 294 295
315 317 316 315 316 316 318 319 318 318 320 320 321 322 327 325 325 322 319 315 313 311 306 300 298 294 295 294 294 292 287 288 290 291 292 292 290 290 289 290 290 291 293
311 314 314 314 315 315 317 318 317 317 317 315 315 316 317 318 318 317 317 314 311 309 304 300 296 296 293 294 296 297 291 290 288 289 289 290 290 290 289 289 288 289 291
312 313 314 314 314 315 317 316 315 313 310 312 314 314 310 312 312 313 313 311 310 308 303 300 299 300 296 293 297 298 298 296 289 283 287 288 289 289 288 288 287 287 289
313 314 313 313 313 314 315 315 315 312 312 316 315 311 310 308 308 307 308 309 308 308 305 302 299 299 299 297 297 295 295 296 295 292 284 284 287 288 289 288 288 287 287
313 313 313 311 311 312 313 314 314 312 312 314 312 311 307 305 303 305 304 305 306 304 303 301 299 299 298 299 298 296 294 292 289 291 288 285 283 285 288 288 287 287 287
Wind_Speed
13 12 12 9 7 11 11 11 13 13 13 13 13 14 14 15 15 14 13 13 12 15 20 22 21 21 21 21 21 20 19 18 21 23 24 24 24 24 24 21 21 19 25
15 14 13 8 8 10 11 11 13 14 14 14 13 15 15 15 15 15 14 13 12 19 20 20 20 20 20 19 19 18 17 15 12 14 19 22 22 24 24 22 23 21 24
15 14 13 8 8 10 12 11 13 15 14 15 15 15 15 15 15 15 15 12 13 19 20 20 19 19 18 19 19 18 16 11 9 10 16 14 17 23 24 22 23 24 25
12 12 12 10 10 10 12 11 13 14 14 15 15 15 15 15 15 15 15 12 16 19 19 19 18 18 18 18 18 17 14 9 10 13 14 16 15 22 24 24 24 24 24
12 12 12 10 10 11 11 11 13 14 13 14 14 15 16 15 15 16 15 14 18 18 18 18 17 17 17 18 17 15 11 8 15 18 15 12 10 19 22 23 22 23 20
12 11 14 11 11 12 11 12 13 14 14 14 14 15 15 15 15 16 16 15 17 17 16 17 17 17 18 17 15 12 8 5 12 13 13 14 13 19 21 21 21 21 22
12 12 13 10 10 10 11 12 12 13 14 14 14 14 15 15 16 16 16 16 17 16 17 16 18 18 17 16 14 12 10 15 16 14 13 13 15 24 24 25 27 26 26
12 12 12 9 8 9 10 10 11 12 14 13 14 14 14 15 16 16 16 17 17 17 17 17 18 18 18 17 14 13 12 14 14 11 13 12 18 21 23 25 26 25 26
13 12 10 12 10 7 7 9 10 12 13 14 13 12 12 13 14 14 15 16 17 17 18 18 17 18 18 17 15 13 13 13 13 10 12 9 16 19 21 25 26 26 26
11 11 10 11 13 11 10 7 7 10 11 12 12 11 11 11 12 12 12 15 17 18 18 17 17 18 18 16 12 10 14 16 13 11 9 8 19 21 21 25 25 26 25
11 13 12 10 12 11 11 9 7 8 10 11 11 11 12 10 11 11 12 13 17 18 18 17 17 18 17 13 11 9 12 7 8 8 6 13 18 24 26 25 25 24 23
12 13 13 13 12 11 8 11 11 10 10 11 11 13 7 9 8 10 10 10 13 16 18 17 14 11 9 7 6 6 7 9 8 8 5 15 21 24 24 23 23 22 23
15 11 11 7 11 11 9 8 6 6 6 7 11 12 6 7 8 8 7 7 7 9 8 10 7 6 7 6 7 7 8 8 6 6 9 13 18 21 20 20 20 21 21
18 16 14 13 13 13 7 7 8 7 7 7 9 13 7 6 7 8 7 8 7 4 7 6 5 8 8 8 8 8 8 8 6 5 10 12 14 18 20 20 19 19 20
17 18 15 13 14 11 11 5 6 7 8 9 9 12 9 8 7 6 6 6 5 3 4 7 8 8 8 8 8 8 8 9 10 6 5 16 11 17 18 17 17 18 19
16 16 17 14 14 13 13 13 8 6 8 8 8 9 12 9 9 8 7 6 7 6 4 5 7 8 8 7 8 8 7 7 8 8 7 9 18 17 16 16 17 17 17
16 16 18 18 14 13 14 12 9 9 7 7 7 11 13 11 10 10 8 7 6 6 7 5 6 7 8 8 8 7 6 7 7 8 7 7 9 13 15 15 15 15 16
17 18 17 12 17 17 14 11 9 9 9 9 8 8 12 12 12 10 9 8 8 8 9 7 6 6 8 7 7 6 5 6 6 6 5 5 6 6 10 13 14 14 15
19 18 17 17 17 16 14 10 11 12 9 9 10 8 11 12 12 10 9 9 11 9 8 8 6 7 9 8 7 6 5 5 5 5 6 6 6 6 6 11 13 13 14
16 17 17 15 17 16 10 9 8 8 8 9 10 9 11 10 12 10 9 11 11 8 9 7 8 6 7 10 8 7 5 4 3 4 5 5 5 5 5 4 5 7 13
15 17 17 17 16 12 10 9 9 9 8 8 7 9 11 11 13 11 9 12 10 11 12 12 9 10 7 10 8 6 4 3 3 3 4 4 5 5 4 4 2 3 5
18 17 16 17 17 15 10 9 7 8 8 8 7 4 9 11 12 10 12 12 13 10 12 13 13 8 4 9 6 7 5 3 4 4 3 4 5 4 4 4 4 4 4
17 18 19 19 17 16 15 10 8 6 4 6 8 8 8 9 9 11 12 12 13 12 11 14 14 12 9 9 11 6 5 5 6 4 5 4 5 4 4 4 4 4 4
16 14 15 15 16 15 16 13 16 11 10 9 10 6 6 7 8 9 12 12 13 12 13 13 13 11 9 13 8 4 1 3 5 4 5 6 6 6 6 5 5 4 4
11 11 12 13 14 15 15 15 12 13 9 6 7 10 8 7 7 9 10 12 12 9 13 16 14 13 9 11 9 7 3 4 4 4 4 6 5 6 6 6 5 5 3
7 9 10 13 15 15 14 16 15 14 12 9 9 9 7 6 6 7 9 10 11 10 12 12 12 13 10 10 8 9 7 6 6 4 3 7 7 7 5 5 5 5 5
Wind_Direction
167 168 190 189 179 155 155 137 123 103 96 91 92 96 91 87 83 81 80 79 80 84 83 80 78 77 75 74 71 70 70 72 79 74 65 61 62 61 59 55 58 55 54
151 163 182 195 180 161 148 134 116 104 99 95 91 90 90 87 85 84 83 78 81 84 83 84 81 75 75 75 75 74 70 59 69 93 84 72 61 63 62 60 63 62 61
155 161 173 189 171 155 144 129 120 111 107 102 100 96 93 91 92 92 91 89 87 87 86 83 83 79 79 78 79 79 73 52 39 86 83 76 68 66 63 62 66 65 64
151 152 169 165 154 154 141 137 127 116 111 106 103 99 96 95 95 96 94 89 90 91 91 89 85 83 83 84 83 83 74 50 47 65 64 65 70 67 69 67 64 65 65
147 153 132 149 151 143 140 136 129 115 109 107 103 100 99 98 98 98 97 95 91 91 91 89 89 88 87 84 84 82 69 56 73 73 82 79 72 72 70 71 69 68 64
156 154 132 147 151 144 135 139 133 124 119 114 106 106 104 102 102 100 99 95 94 92 95 94 92 90 88 85 82 62 28 35 77 81 82 76 79 82 81 80 75 69 59
157 142 152 154 148 137 136 144 142 135 125 119 113 107 105 106 105 105 103 100 99 99 98 97 95 92 88 83 76 51 26 51 67 66 68 71 75 73 79 72 66 61 62
159 147 153 150 144 138 143 148 151 145 133 128 121 115 113 109 109 108 104 102 100 98 97 95 94 91 85 82 68 51 26 90 93 80 77 62 64 70 73 71 67 60 58
155 166 154 166 157 147 147 153 150 147 138 134 131 122 113 110 109 106 106 107 105 102 98 97 97 93 88 82 68 51 39 55 71 63 74 70 77 79 76 72 71 66 61
160 177 167 170 171 169 164 157 143 145 142 142 128 118 107 101 101 101 107 112 111 107 103 102 99 94 86 77 55 37 60 51 60 70 81 88 87 86 87 84 77 70 66
175 187 184 180 181 178 172 160 154 149 149 138 130 131 146 134 129 140 90 114 117 113 108 106 103 98 90 68 40 28 88 81 76 75 80 91 92 92 90 83 79 76 70
195 201 191 184 188 183 170 160 181 165 172 172 167 165 165 153 141 119 108 105 112 116 114 111 114 138 133 106 91 57 86 79 69 59 60 84 90 92 87 85 80 73 67
196 191 194 191 192 190 186 172 188 176 186 182 177 184 179 151 130 142 134 132 127 135 126 129 142 95 96 94 91 91 90 87 76 60 26 76 88 91 89 87 82 77 73
192 200 201 186 202 202 182 203 196 180 196 191 186 193 178 151 172 148 158 151 161 161 151 132 115 108 98 95 101 106 104 109 99 75 45 39 90 97 92 93 85 79 75
205 196 197 206 204 195 200 185 222 213 192 206 193 193 181 168 174 154 152 151 154 132 167 137 132 120 108 102 99 103 103 106 106 93 67 29 56 84 91 84 88 83 79
207 198 193 197 215 208 204 202 202 226 229 209 211 196 193 174 168 163 161 165 151 152 148 140 139 128 114 110 107 106 108 105 104 100 85 53 52 72 84 88 84 84 83
205 207 195 196 200 220 212 214 214 200 214 228 214 213 201 182 171 166 162 156 146 129 130 116 116 136 123 120 114 109 107 107 108 105 106 94 65 53 78 84 83 84 83
207 206 198 191 200 205 213 214 213 225 211 221 210 220 206 179 170 162 162 157 148 150 138 123 144 148 125 124 128 117 104 100 101 107 105 101 102 85 71 81 83 82 81
208 202 202 195 202 203 209 210 215 219 218 221 222 200 205 188 169 169 168 157 153 156 148 144 151 166 136 126 128 123 119 117 120 109 102 88 91 99 91 76 69 74 77
210 208 204 200 203 202 200 209 213 218 220 225 228 213 204 192 174 168 165 157 152 154 148 142 154 163 147 132 130 124 117 114 121 119 115 111 110 119 126 120 88 61 73
209 207 205 200 200 196 196 197 202 212 209 206 252 215 207 197 182 166 166 160 163 169 165 158 148 151 143 131 117 116 119 136 150 142 152 139 139 126 128 116 100 95 82
207 206 204 204 198 200 195 197 202 211 221 210 215 221 220 202 186 167 167 171 170 165 164 162 163 154 149 167 137 143 169 189 203 199 182 160 159 151 131 111 105 92 85
210 205 204 202 199 198 201 191 194 212 184 203 208 204 198 197 176 168 173 171 169 167 167 169 173 170 159 192 172 156 160 207 142 176 200 193 176 172 146 139 121 108 100
217 215 209 204 202 201 197 199 197 200 200 207 208 200 180 187 175 172 176 170 177 172 174 175 182 183 173 173 186 210 63 112 187 169 190 198 193 182 169 174 148 134 130
207 208 207 206 208 205 204 207 204 208 219 208 197 189 183 187 182 179 176 172 177 185 184 176 183 196 195 172 177 171 181 226 261 150 164 180 195 198 179 172 164 156 145
206 193 199 205 205 207 207 211 215 214 218 206 198 200 185 185 180 183 178 182 178 177 183 182 185 197 193 183 182 171 175 172 188 193 135 160 180 183 178 174 180 178 167